sat.trackr.live / text

‹ back to catalog

STARLINK-4797

NORAD 53852 · 2022-114AL

PAYLOAD ACTIVE UNKNOWN

§ Identity

Operator
Country
US
Launch date
2022-09-19
Launch site
AFETR
Launch vehicle
Mass (kg)
RCS (m²)

Purposes: comms

External: N2YO · Heavens-Above · Gunter

§ Orbital elements

Epoch: 2026-09-20T05:51:57.026592Z

Period
94.01 min
Inclination
53.1601°
Eccentricity
0.0001372
Mean motion
15.31701890 rev/d
Perigee alt
469.8 km
Apogee alt
471.7 km
Semi-major
6,848.9 km
B*
2.0158e-5
RAAN
125.2141°
Arg perigee
92.9530°
Mean anomaly
267.1629°
Rev number
22,255

§ Raw data

STARLINK-47971 53852U 22114AL  26263.24441003  .00000260  00000+0  20158-4 0  99972 53852  53.1601 125.2141 0001372  92.9530 267.1629 15.31701890222552

JSON: /api/v1/satellites/53852 · /tle

For live sub-satellite position, see the globe view (requires WebGL).

§ Visibility from observer

Set your observer location to see the next 7 days of passes ≥ 10°. The values pass through the URL so the page stays shareable.

No JS? Fill the form by hand. The geolocation button needs JavaScript.